Simultaneous Nadir Overpasses (SNOs) Predictions

Prediction of SNOs between FY3D and NOAA-19 Satellite Orbit:

Table of predicted SNOs for the next 14.0 days since TLE Epoch: 7/29/2023
Index Date (FY3D) Time (FY3D) Lat,Lon (FY3D) SZA (FY3D ) Date (NOAA-19) Time (NOAA-19) Lat,Lon (NOAA-19) SZA (NOAA-19 ) Distance(km) Time Diff (sec)
1 08/07/2023 08:53:31 -76.46,-141.09 119.87 08/07/2023 08:52:18 -76.47,-141.14 119.84 2.05 73
2 08/07/2023 09:44:18 76.47, 26.18 60.15 08/07/2023 09:43:16 76.50, 26.20 60.19 3.20 62
3 08/07/2023 10:35:03 -76.48,-166.57 119.83 08/07/2023 10:34:17 -76.47,-166.64 119.83 2.26 46
4 08/07/2023 11:25:50 76.49, 0.71 60.20 08/07/2023 11:25:15 76.49, 0.70 60.20 0.27 35
5 08/07/2023 12:16:35 -76.51, 167.96 119.78 08/07/2023 12:16:15 -76.51, 168.03 119.77 2.02 20
6 08/07/2023 13:07:22 76.52, -24.77 60.25 08/07/2023 13:07:14 76.49, -24.81 60.22 3.32 8
7 08/07/2023 13:58:07 -76.53, 142.48 119.73 08/07/2023 13:58:14 -76.51, 142.53 119.76 2.92 7
8 08/07/2023 14:48:54 76.54, -50.25 60.29 08/07/2023 14:49:12 76.53, -50.14 60.27 3.13 18
9 08/07/2023 15:39:38 -76.52, 117.17 119.73 08/07/2023 15:40:13 -76.51, 117.03 119.74 3.84 35
10 08/07/2023 16:30:25 76.52, -75.55 60.29 08/07/2023 16:31:11 76.53, -75.64 60.29 2.42 46
11 08/07/2023 17:21:10 -76.54, 91.70 119.68 08/07/2023 17:22:11 -76.55, 91.70 119.68 1.01 61
12 08/07/2023 18:11:57 76.55,-101.03 60.34 08/07/2023 18:13:09 76.57,-100.98 60.34 2.41 72



Historial Predications of SNOs between FY3D and NOAA-19
